Time,TemperatureF,DewpointF,PressureIn,WindDirection,WindDirectionDegrees,WindSpeedMPH,WindSpeedGustMPH,Humidity,HourlyPrecipIn,Conditions,Clouds,dailyrainin,SoftwareType,DateUTC
2013-08-02 00:04:00,68.5,63.5,29.92,South,180,1.7,-999.0,84,-99.99,,,0.00,Acu-Link.com,2013-08-02 05:04:00,
2013-08-02 00:19:00,70.2,63.4,29.92,SE,135,3.7,-999.0,79,-99.99,,,0.00,Acu-Link.com,2013-08-02 05:19:00,
2013-08-02 00:34:00,70.7,63.9,29.92,South,180,4.7,-999.0,79,-99.99,,,0.00,Acu-Link.com,2013-08-02 05:34:00,
2013-08-02 00:50:00,70.0,63.2,29.91,SSE,157,2.7,-999.0,79,-99.99,,,0.00,Acu-Link.com,2013-08-02 05:50:00,
2013-08-02 01:05:00,69.6,63.1,29.92,SE,135,0.0,-999.0,80,-99.99,,,0.00,Acu-Link.com,2013-08-02 06:05:00,
2013-08-02 01:20:00,69.8,63.3,29.91,SSE,157,2.2,-999.0,80,-99.99,,,0.00,Acu-Link.com,2013-08-02 06:20:00,
2013-08-02 01:35:00,70.7,63.5,29.91,SE,135,2.7,-999.0,78,-99.99,,,0.00,Acu-Link.com,2013-08-02 06:35:00,
2013-08-02 01:51:00,70.5,63.3,29.90,SE,135,3.2,-999.0,78,-99.99,,,0.00,Acu-Link.com,2013-08-02 06:51:00,
2013-08-02 02:06:00,70.9,63.3,29.90,SSE,157,2.2,-999.0,77,-99.99,,,0.00,Acu-Link.com,2013-08-02 07:06:00,
2013-08-02 02:21:00,70.9,63.3,29.89,East,90,2.7,-999.0,77,-99.99,,,0.00,Acu-Link.com,2013-08-02 07:21:00,
2013-08-02 02:37:00,70.5,63.3,29.89,SSE,157,1.1,-999.0,78,-99.99,,,0.00,Acu-Link.com,2013-08-02 07:37:00,
2013-08-02 02:52:00,70.3,63.1,29.90,SSE,157,1.1,-999.0,78,-99.99,,,0.00,Acu-Link.com,2013-08-02 07:52:00,
2013-08-02 03:07:00,70.0,63.2,29.90,ESE,112,0.0,-999.0,79,-99.99,,,0.00,Acu-Link.com,2013-08-02 08:07:00,
2013-08-02 03:22:00,69.8,63.0,29.89,SSE,157,1.7,-999.0,79,-99.99,,,0.00,Acu-Link.com,2013-08-02 08:22:00,
2013-08-02 03:37:00,69.4,63.0,29.89,ESE,112,2.7,-999.0,80,-99.99,,,0.00,Acu-Link.com,2013-08-02 08:37:00,
2013-08-02 03:52:00,70.2,63.4,29.89,SSE,157,3.7,-999.0,79,-99.99,,,0.00,Acu-Link.com,2013-08-02 08:52:00,
2013-08-02 04:07:00,70.7,63.5,29.88,SSE,157,5.8,-999.0,78,-99.99,,,0.00,Acu-Link.com,2013-08-02 09:07:00,
2013-08-02 04:23:00,70.7,63.5,29.89,SE,135,3.7,-999.0,78,-99.99,,,0.00,Acu-Link.com,2013-08-02 09:23:00,
2013-08-02 04:38:00,70.7,63.5,29.89,South,180,2.7,-999.0,78,-99.99,,,0.00,Acu-Link.com,2013-08-02 09:38:00,
2013-08-02 04:53:00,70.7,63.9,29.89,ESE,112,4.2,-999.0,79,-99.99,,,0.00,Acu-Link.com,2013-08-02 09:53:00,
2013-08-02 05:08:00,70.9,64.1,29.88,South,180,2.7,-999.0,79,-99.99,,,0.00,Acu-Link.com,2013-08-02 10:08:00,
2013-08-02 05:24:00,71.2,64.3,29.90,South,180,4.2,-999.0,79,-99.99,,,0.00,Acu-Link.com,2013-08-02 10:24:00,
2013-08-02 05:39:00,71.4,64.9,29.89,SSW,202,3.7,-999.0,80,-99.99,,,0.00,Acu-Link.com,2013-08-02 10:39:00,
2013-08-02 05:54:00,72.0,65.5,29.89,SE,135,5.8,-999.0,80,-99.99,,,0.00,Acu-Link.com,2013-08-02 10:54:00,
2013-08-02 06:10:00,72.1,65.6,29.89,SSE,157,3.7,-999.0,80,-99.99,,,0.00,Acu-Link.com,2013-08-02 11:10:00,
2013-08-02 06:25:00,71.8,65.3,29.91,SE,135,2.2,-999.0,80,-99.99,,,0.00,Acu-Link.com,2013-08-02 11:25:00,
2013-08-02 06:40:00,71.8,65.3,29.91,South,180,4.7,-999.0,80,-99.99,,,0.00,Acu-Link.com,2013-08-02 11:40:00,
2013-08-02 06:55:00,72.0,65.1,29.91,SSE,157,3.7,-999.0,79,-99.99,,,0.00,Acu-Link.com,2013-08-02 11:55:00,
2013-08-02 07:10:00,71.6,64.7,29.91,SSE,157,1.7,-999.0,79,-99.99,,,0.00,Acu-Link.com,2013-08-02 12:10:00,
2013-08-02 07:25:00,71.6,65.1,29.90,SE,135,3.7,-999.0,80,-99.99,,,0.00,Acu-Link.com,2013-08-02 12:25:00,
2013-08-02 07:41:00,71.4,64.9,29.91,SSE,157,2.2,-999.0,80,-99.99,,,0.00,Acu-Link.com,2013-08-02 12:41:00,
2013-08-02 07:56:00,71.4,64.5,29.90,East,90,5.8,-999.0,79,-99.99,,,0.00,Acu-Link.com,2013-08-02 12:56:00,
2013-08-02 08:11:00,71.4,64.2,29.90,SSE,157,3.2,-999.0,78,-99.99,,,0.00,Acu-Link.com,2013-08-02 13:11:00,
2013-08-02 08:27:00,71.4,64.2,29.92,SSE,157,1.7,-999.0,78,-99.99,,,0.00,Acu-Link.com,2013-08-02 13:27:00,
2013-08-02 08:42:00,71.6,63.6,29.92,South,180,3.7,-999.0,76,-99.99,,,0.00,Acu-Link.com,2013-08-02 13:42:00,
2013-08-02 08:57:00,71.6,63.2,29.92,South,180,4.7,-999.0,75,-99.99,,,0.00,Acu-Link.com,2013-08-02 13:57:00,
2013-08-02 09:12:00,71.8,63.4,29.92,SSE,157,4.2,-999.0,75,-99.99,,,0.00,Acu-Link.com,2013-08-02 14:12:00,
2013-08-02 09:27:00,72.0,63.6,29.91,South,180,3.7,-999.0,75,-99.99,,,0.00,Acu-Link.com,2013-08-02 14:27:00,
2013-08-02 09:42:00,71.8,63.4,29.91,SSE,157,4.7,-999.0,75,-99.99,,,0.00,Acu-Link.com,2013-08-02 14:42:00,
2013-08-02 09:58:00,72.3,63.9,29.91,SSE,157,4.2,-999.0,75,-99.99,,,0.00,Acu-Link.com,2013-08-02 14:58:00,
2013-08-02 10:13:00,73.6,64.8,29.91,SSE,157,7.8,-999.0,74,-99.99,,,0.00,Acu-Link.com,2013-08-02 15:13:00,
2013-08-02 10:28:00,73.9,64.7,29.90,South,180,4.2,-999.0,73,-99.99,,,0.00,Acu-Link.com,2013-08-02 15:28:00,
2013-08-02 10:43:00,73.2,64.8,29.90,SW,225,4.2,-999.0,75,-99.99,,,0.00,Acu-Link.com,2013-08-02 15:43:00,
2013-08-02 10:58:00,72.9,64.5,29.89,South,180,8.3,-999.0,75,-99.99,,,0.00,Acu-Link.com,2013-08-02 15:58:00,
2013-08-02 11:14:00,72.9,64.5,29.88,SSE,157,5.3,-999.0,75,-99.99,,,0.00,Acu-Link.com,2013-08-02 16:14:00,
2013-08-02 11:29:00,73.2,64.8,29.89,SE,135,8.3,-999.0,75,-99.99,,,0.00,Acu-Link.com,2013-08-02 16:29:00,
2013-08-02 11:44:00,73.9,65.5,29.88,South,180,4.7,-999.0,75,-99.99,,,0.00,Acu-Link.com,2013-08-02 16:44:00,
2013-08-02 11:59:00,76.8,66.7,29.88,West,270,7.8,-999.0,71,-99.99,,,0.00,Acu-Link.com,2013-08-02 16:59:00,
2013-08-02 12:15:00,76.8,67.1,29.87,ESE,112,4.7,-999.0,72,-99.99,,,0.00,Acu-Link.com,2013-08-02 17:15:00,
2013-08-02 12:30:00,77.0,67.3,29.86,ESE,112,5.3,-999.0,72,-99.99,,,0.00,Acu-Link.com,2013-08-02 17:30:00,
2013-08-02 12:49:00,77.4,67.6,29.87,South,180,4.7,-999.0,72,-99.99,,,0.00,Acu-Link.com,2013-08-02 17:49:00,
2013-08-02 13:04:00,76.8,67.5,29.86,South,180,6.8,-999.0,73,-99.99,,,0.00,Acu-Link.com,2013-08-02 18:04:00,
2013-08-02 13:19:00,77.5,68.1,29.85,SW,225,4.2,-999.0,73,-99.99,,,0.00,Acu-Link.com,2013-08-02 18:19:00,
2013-08-02 13:34:00,78.1,68.7,29.86,West,270,2.7,-999.0,73,-99.99,,,0.00,Acu-Link.com,2013-08-02 18:34:00,
2013-08-02 13:49:00,78.3,68.9,29.85,ENE,67,2.7,-999.0,73,-99.99,,,0.00,Acu-Link.com,2013-08-02 18:49:00,
2013-08-02 14:05:00,79.2,69.8,29.85,South,180,3.2,-999.0,73,-99.99,,,0.00,Acu-Link.com,2013-08-02 19:05:00,
2013-08-02 14:20:00,82.0,71.2,29.85,SSE,157,4.7,-999.0,70,-99.99,,,0.00,Acu-Link.com,2013-08-02 19:20:00,
2013-08-02 14:35:00,83.3,72.0,29.84,South,180,12.5,-999.0,69,-99.99,,,0.00,Acu-Link.com,2013-08-02 19:35:00,
2013-08-02 14:50:00,82.9,71.7,29.84,SSW,202,7.8,-999.0,69,-99.99,,,0.00,Acu-Link.com,2013-08-02 19:50:00,
2013-08-02 15:05:00,84.6,72.8,29.82,SSE,157,6.8,-999.0,68,-99.99,,,0.00,Acu-Link.com,2013-08-02 20:05:00,
2013-08-02 15:20:00,86.2,73.9,29.82,South,180,4.7,-999.0,67,-99.99,,,0.00,Acu-Link.com,2013-08-02 20:20:00,
2013-08-02 15:35:00,85.3,73.9,29.82,East,90,4.2,-999.0,69,-99.99,,,0.00,Acu-Link.com,2013-08-02 20:35:00,
2013-08-02 15:51:00,86.0,73.7,29.82,SE,135,6.3,-999.0,67,-99.99,,,0.00,Acu-Link.com,2013-08-02 20:51:00,
2013-08-02 16:06:00,86.0,73.7,29.80,West,270,7.3,-999.0,67,-99.99,,,0.00,Acu-Link.com,2013-08-02 21:06:00,
2013-08-02 16:21:00,86.7,74.8,29.80,West,270,3.2,-999.0,68,-99.99,,,0.00,Acu-Link.com,2013-08-02 21:21:00,
2013-08-02 16:37:00,86.9,75.0,29.78,SSE,157,4.7,-999.0,68,-99.99,,,0.00,Acu-Link.com,2013-08-02 21:37:00,
2013-08-02 16:52:00,86.7,74.8,29.79,South,180,5.8,-999.0,68,-99.99,,,0.00,Acu-Link.com,2013-08-02 21:52:00,
2013-08-02 17:07:00,87.4,74.6,29.78,WSW,247,4.2,-999.0,66,-99.99,,,0.00,Acu-Link.com,2013-08-02 22:07:00,
2013-08-02 17:22:00,86.9,74.6,29.79,South,180,3.2,-999.0,67,-99.99,,,0.00,Acu-Link.com,2013-08-02 22:22:00,
2013-08-02 17:38:00,86.5,74.2,29.79,SSE,157,3.2,-999.0,67,-99.99,,,0.00,Acu-Link.com,2013-08-02 22:38:00,
2013-08-02 17:52:00,86.2,74.4,29.79,South,180,7.8,-999.0,68,-99.99,,,0.00,Acu-Link.com,2013-08-02 22:52:00,
2013-08-02 18:08:00,86.5,74.2,29.79,South,180,1.1,-999.0,67,-99.99,,,0.00,Acu-Link.com,2013-08-02 23:08:00,
2013-08-02 18:23:00,88.2,75.4,29.80,South,180,2.7,-999.0,66,-99.99,,,0.00,Acu-Link.com,2013-08-02 23:23:00,
2013-08-02 18:38:00,85.8,73.5,29.80,SSW,202,2.7,-999.0,67,-99.99,,,0.00,Acu-Link.com,2013-08-02 23:38:00,
2013-08-02 18:53:00,85.5,74.1,29.80,WSW,247,1.1,-999.0,69,-99.99,,,0.00,Acu-Link.com,2013-08-02 23:53:00,
2013-08-02 19:09:00,85.1,73.3,29.80,SE,135,1.7,-999.0,68,-99.99,,,0.00,Acu-Link.com,2013-08-03 00:09:00,
2013-08-02 19:24:00,84.4,73.1,29.81,SE,135,0.0,-999.0,69,-99.99,,,0.00,Acu-Link.com,2013-08-03 00:24:00,
2013-08-02 19:40:00,82.8,72.4,29.81,SSE,157,2.2,-999.0,71,-99.99,,,0.00,Acu-Link.com,2013-08-03 00:40:00,
2013-08-02 19:55:00,82.4,72.9,29.81,East,90,1.7,-999.0,73,-99.99,,,0.00,Acu-Link.com,2013-08-03 00:55:00,
2013-08-02 20:10:00,81.3,72.6,29.81,SE,135,1.7,-999.0,75,-99.99,,,0.00,Acu-Link.com,2013-08-03 01:10:00,
2013-08-02 20:25:00,79.9,72.0,29.81,SE,135,4.2,-999.0,77,-99.99,,,0.00,Acu-Link.com,2013-08-03 01:25:00,
2013-08-02 20:41:00,79.7,71.8,29.82,SSW,202,0.0,-999.0,77,-99.99,,,0.00,Acu-Link.com,2013-08-03 01:41:00,
2013-08-02 20:56:00,79.3,71.8,29.82,SSW,202,0.0,-999.0,78,-99.99,,,0.00,Acu-Link.com,2013-08-03 01:56:00,
2013-08-02 21:26:00,77.5,71.6,29.83,East,90,2.2,-999.0,82,-99.99,,,0.00,Acu-Link.com,2013-08-03 02:26:00,
2013-08-02 21:42:00,76.8,71.2,29.83,ESE,112,0.0,-999.0,83,-99.99,,,0.00,Acu-Link.com,2013-08-03 02:42:00,
2013-08-02 21:57:00,76.3,71.1,29.83,East,90,0.0,-999.0,84,-99.99,,,0.00,Acu-Link.com,2013-08-03 02:57:00,
2013-08-02 22:12:00,75.7,70.9,29.84,ESE,112,1.1,-999.0,85,-99.99,,,0.00,Acu-Link.com,2013-08-03 03:12:00,
2013-08-02 22:28:00,75.6,71.1,29.84,SE,135,1.1,-999.0,86,-99.99,,,0.00,Acu-Link.com,2013-08-03 03:28:00,
2013-08-02 22:43:00,75.2,70.7,29.84,ENE,67,0.0,-999.0,86,-99.99,,,0.00,Acu-Link.com,2013-08-03 03:43:00,
2013-08-02 22:59:00,75.4,71.3,29.83,SE,135,1.7,-999.0,87,-99.99,,,0.00,Acu-Link.com,2013-08-03 03:59:00,
2013-08-02 23:14:00,76.6,71.7,29.83,SSE,157,1.7,-999.0,85,-99.99,,,0.00,Acu-Link.com,2013-08-03 04:14:00,
2013-08-02 23:29:00,76.6,71.7,29.84,ESE,112,2.7,-999.0,85,-99.99,,,0.00,Acu-Link.com,2013-08-03 04:29:00,
2013-08-02 23:44:00,76.8,71.6,29.85,ESE,112,0.0,-999.0,84,-99.99,,,0.00,Acu-Link.com,2013-08-03 04:44:00,
2013-08-02 23:59:00,76.6,71.4,29.84,South,180,2.7,-999.0,84,-99.99,,,0.00,Acu-Link.com,2013-08-03 04:59:00,